Regional Weather Roundup
Issued by NWS

Home | Current Version | Previous Version | Graphics & Text | Print | Product List | Glossary Off
Versions: 1 2 3 4 5 6 7 8 9 10 11 12 13 14 15 16 17 18 19 20 21 22 23 24 25 26 27 28 29 30 31 32 33 34 35 36 37 38 39 40 41 42 43 44 45 46 47 48 49 50

912
ASUS43 KFSD 221810
RWRSD

WEATHER ROUNDUP FOR SOUTH DAKOTA
NATIONAL WEATHER SERVICE SIOUX FALLS SD
100 PM CDT MON MAY 22 2017

NOTE: "FAIR" INDICATES FEW OR NO CLOUDS BELOW 12,000 FEET WITH NO
SIGNIFICANT WEATHER AND/OR OBSTRUCTIONS TO VISIBILITY.


SDZ001>005-009-010-012>017-221900-
NORTHWEST AND NORTH CENTRAL SOUTH DAKOTA

CITY           SKY/WX    TMP DP  RH WIND       PRES   REMARKS
BUFFALO          N/A     51  43  74 N21G35    29.97R
FAITH            N/A     56  43  61 N23G30    29.99R
MOBRIDGE       CLOUDY    54  41  61 N13       29.94R
$$

SDZ012>016-024>037-041>051-057-063-072>074-221900-
SOUTHWEST AND SOUTH CENTRAL SOUTH DAKOTA

CITY           SKY/WX    TMP DP  RH WIND       PRES   REMARKS
RAPID CTY ARPT LGT RAIN  53  43  68 NW22G30   30.02R
PIERRE         CLOUDY    59  45  59 NW22G29   29.92S
CUSTER         LGT RAIN  44  31  60 N15G26    30.07R
ELLSWORTH AFB  LGT RAIN  53  44  71 NW18      30.03
PHILIP         MOSUNNY   66  44  45 N13G22    29.95F
PINE RIDGE     PTSUNNY   61  42  49 W12G18    30.02F
SPEARFISH      FAIR      48  45  87 NW10      30.09S
WINNER         MOCLDY    62  47  57 W14       29.94F
$$

SDZ004>011-016>023-039-040-221900-
NORTHEAST SOUTH DAKOTA

CITY           SKY/WX    TMP DP  RH WIND       PRES   REMARKS
ABERDEEN       CLOUDY    56  34  43 N8        29.91S
WATERTOWN      CLOUDY    61  39  44 N7        29.87S
BROOKINGS      CLOUDY    58  49  72 W14       29.86F
SISSETON         N/A     61  44  53 N10       29.87S
$$

SDZ017-020-022-023-036>040-048>070-221900-
SOUTHEAST SOUTH DAKOTA

CITY           SKY/WX    TMP DP  RH WIND       PRES   REMARKS
SIOUX FALLS    PTSUNNY   63  52  67 W9G18     29.86F
HURON          LGT RAIN  51  50  96 NW14      29.89S
CHAMBERLAIN    CLOUDY    61  47  60 W14       29.93F
MITCHELL       CLOUDY    56  48  74 NW16      29.91S
YANKTON        SUNNY     64  50  60 SW16      29.90S
$$

ABBREVIATIONS USED IN REMARKS
   TC - TEMPERATURE IN CELSIUS
  WCI - WIND CHILL INDEX
   HX - HEAT INDEX
  VSB - VISIBILITY





USA.gov is the U.S. government's official web portal to all federal, state and local government web resources and services.